User: anonymous   Login
Location: ????????
(54.8751°N, 38.5756°E)
Time: 19:49:11
(UTC+00:00)
Language:

Cosmos 1766 - Orbit

View from above orbital plane
View from above orbital plane
View from above satellite
View from above satellite

Ground track
Ground track

The orbit data is extracted from the following two-line orbital elements,

1 16881U 86055A   24166.59441017  .00008552  00000-0  35327-3 0  9991
2 16881  82.5011  34.4817 0010530 290.7663  69.2445 15.23814690 46405
Epoch (UTC): 14 June 2024 14:15:57
Eccentricity: 0.0010530
inclination: 82.5011°
perigee height: 487 km
apogee height: 501 km
right ascension of ascending node: 34.4817°
argument of perigee: 290.7663°
revolutions per day: 15.23814690
mean anomaly at epoch: 69.2445°
orbit number at epoch: 4640

The dashed part of the orbit path shows where the satellite is in the earth's shadow,  

DLR